Temp
-14 -14 -13 -13 -13 -13 -12 -12 -12 -11 -11 -11 -11 -11 -11 -11 -11 -11 -12 -18 -20 -21 -21 -21 -21 -22 -23 -23 -23 -23 -22 -22 -22 -21 -21 -20 -20 -20 -20 -20 -20 -19 -19 -18
-14 -13 -13 -13 -13 -13 -12 -12 -12 -12 -11 -11 -11 -11 -11 -11 -11 -11 -12 -17 -20 -20 -20 -21 -22 -22 -22 -23 -22 -22 -22 -22 -21 -21 -20 -21 -20 -20 -20 -20 -20 -19 -19 -19
-14 -13 -13 -13 -13 -13 -12 -12 -12 -12 -12 -12 -12 -11 -12 -11 -11 -11 -12 -16 -19 -20 -20 -20 -21 -22 -22 -22 -22 -21 -21 -21 -21 -21 -21 -21 -20 -20 -20 -20 -20 -20 -19 -19
-13 -13 -13 -13 -13 -13 -12 -12 -12 -12 -12 -12 -12 -12 -12 -11 -12 -12 -12 -15 -19 -20 -20 -20 -21 -21 -21 -21 -21 -21 -21 -21 -21 -21 -21 -20 -20 -20 -20 -20 -20 -20 -20 -20
-13 -13 -13 -13 -13 -13 -13 -12 -12 -12 -12 -12 -12 -12 -12 -12 -12 -12 -12 -14 -18 -20 -20 -20 -20 -21 -21 -21 -21 -21 -20 -20 -20 -21 -20 -20 -20 -20 -20 -20 -20 -20 -20 -20
-13 -13 -13 -13 -13 -13 -13 -13 -12 -12 -13 -13 -13 -12 -12 -12 -12 -12 -13 -15 -18 -20 -20 -20 -20 -20 -21 -21 -21 -21 -21 -20 -20 -20 -20 -20 -20 -20 -20 -20 -20 -20 -19 -19
-13 -13 -13 -13 -13 -13 -13 -13 -12 -12 -13 -13 -13 -12 -12 -12 -12 -13 -13 -15 -18 -20 -21 -20 -20 -21 -20 -21 -20 -20 -20 -20 -20 -20 -20 -20 -20 -20 -19 -20 -19 -19 -19 -19
-14 -13 -13 -13 -13 -13 -13 -13 -12 -12 -13 -13 -13 -13 -13 -12 -12 -13 -13 -14 -17 -19 -21 -21 -21 -20 -20 -20 -20 -20 -20 -20 -20 -20 -20 -20 -20 -20 -20 -20 -20 -19 -19 -19
-14 -13 -14 -13 -13 -13 -13 -13 -13 -13 -13 -13 -13 -13 -13 -13 -13 -13 -14 -14 -16 -18 -20 -20 -21 -21 -21 -21 -20 -20 -20 -20 -21 -20 -20 -19 -20 -20 -20 -19 -19 -19 -19 -19
-14 -14 -13 -14 -14 -13 -13 -13 -13 -13 -13 -13 -13 -13 -13 -13 -13 -13 -14 -14 -15 -17 -19 -20 -21 -21 -21 -21 -21 -21 -21 -21 -21 -21 -21 -20 -20 -20 -20 -20 -19 -20 -19 -19
-14 -14 -14 -14 -14 -14 -13 -13 -13 -13 -13 -14 -14 -14 -14 -13 -13 -14 -14 -14 -15 -16 -18 -20 -21 -22 -22 -22 -22 -21 -21 -21 -21 -21 -21 -21 -21 -21 -20 -20 -20 -20 -20 -19
-14 -14 -14 -14 -14 -14 -13 -13 -13 -13 -13 -14 -14 -14 -14 -14 -14 -14 -14 -14 -14 -15 -17 -19 -21 -22 -22 -22 -22 -22 -22 -22 -22 -21 -21 -21 -21 -21 -21 -21 -21 -20 -20 -20
-14 -14 -14 -14 -14 -14 -14 -13 -14 -14 -14 -14 -14 -14 -14 -14 -14 -14 -15 -15 -15 -16 -16 -18 -20 -21 -22 -23 -22 -23 -22 -22 -22 -22 -22 -21 -21 -21 -21 -21 -21 -21 -20 -20
-14 -14 -15 -14 -14 -14 -14 -14 -14 -14 -14 -14 -14 -14 -14 -14 -15 -15 -15 -15 -15 -15 -16 -17 -19 -21 -22 -23 -23 -23 -23 -23 -23 -22 -22 -22 -22 -22 -21 -21 -21 -21 -20 -20
-14 -14 -14 -14 -14 -14 -14 -14 -14 -14 -14 -14 -15 -15 -15 -15 -15 -15 -15 -15 -15 -16 -16 -17 -18 -20 -22 -23 -23 -23 -23 -23 -23 -23 -23 -23 -22 -22 -22 -22 -21 -21 -21 -20
-14 -15 -14 -14 -14 -14 -14 -14 -14 -15 -14 -14 -15 -15 -15 -15 -15 -15 -16 -16 -16 -16 -16 -17 -18 -19 -21 -22 -23 -23 -23 -23 -23 -23 -23 -23 -23 -23 -22 -22 -22 -22 -21 -21
-14 -14 -15 -15 -15 -15 -15 -14 -14 -15 -14 -14 -15 -15 -15 -16 -16 -16 -16 -16 -16 -16 -17 -17 -18 -18 -20 -22 -23 -23 -24 -23 -23 -23 -24 -23 -23 -23 -23 -23 -22 -22 -22 -22
-15 -15 -15 -14 -15 -15 -15 -15 -15 -15 -14 -15 -15 -15 -15 -16 -16 -16 -17 -17 -17 -17 -17 -18 -19 -19 -20 -21 -23 -24 -24 -24 -23 -23 -23 -23 -24 -24 -23 -23 -23 -23 -23 -22
-15 -15 -15 -15 -15 -15 -15 -15 -15 -15 -15 -15 -14 -15 -16 -16 -17 -17 -17 -17 -17 -18 -18 -18 -19 -20 -20 -22 -23 -24 -24 -24 -24 -24 -23 -23 -23 -23 -24 -23 -23 -23 -23 -23
-15 -15 -15 -15 -15 -15 -15 -15 -16 -15 -15 -15 -15 -15 -16 -16 -17 -18 -18 -18 -18 -18 -18 -19 -19 -20 -20 -21 -23 -24 -24 -25 -24 -24 -24 -24 -23 -23 -23 -23 -23 -23 -23 -23
-15 -15 -15 -15 -15 -16 -16 -16 -16 -16 -16 -16 -15 -15 -16 -17 -18 -18 -19 -18 -19 -19 -19 -19 -20 -20 -20 -21 -22 -24 -24 -24 -24 -24 -24 -24 -24 -24 -23 -23 -23 -23 -23 -23
-15 -15 -15 -15 -15 -16 -16 -16 -16 -16 -16 -16 -16 -16 -16 -17 -18 -19 -19 -19 -19 -20 -20 -20 -20 -21 -21 -21 -22 -24 -25 -25 -25 -25 -24 -24 -24 -24 -24 -24 -23 -23 -23 -23
-15 -15 -15 -15 -16 -16 -16 -16 -16 -16 -16 -16 -16 -16 -17 -18 -19 -19 -20 -20 -20 -20 -21 -21 -21 -21 -21 -21 -22 -24 -25 -25 -25 -25 -25 -25 -25 -25 -24 -24 -24 -24 -24 -24
-16 -16 -16 -16 -16 -16 -16 -16 -16 -17 -17 -16 -16 -17 -18 -18 -19 -19 -20 -20 -21 -21 -21 -21 -22 -22 -22 -22 -22 -23 -25 -25 -25 -25 -25 -25 -25 -25 -25 -25 -24 -24 -24 -24
-16 -16 -16 -16 -16 -16 -16 -16 -17 -17 -17 -16 -16 -17 -18 -19 -19 -20 -20 -21 -21 -21 -21 -22 -22 -22 -22 -22 -22 -23 -24 -25 -26 -26 -26 -25 -25 -25 -25 -25 -25 -25 -25 -25
-16 -15 -15 -16 -16 -16 -16 -17 -17 -17 -17 -17 -17 -18 -19 -19 -20 -20 -21 -21 -21 -22 -22 -22 -22 -22 -22 -22 -22 -23 -24 -25 -26 -26 -26 -26 -26 -26 -26 -26 -25 -25 -25 -25
-15 -15 -16 -16 -16 -16 -17 -17 -18 -18 -17 -17 -17 -18 -19 -19 -21 -21 -21 -21 -22 -22 -22 -22 -23 -23 -23 -23 -23 -23 -24 -25 -26 -26 -26 -26 -26 -26 -26 -26 -26 -26 -26 -26
Height
5686 5688 5691 5693 5695 5696 5695 5692 5690 5684 5679 5674 5667 5660 5652 5644 5634 5622 5609 5598 5594 5592 5591 5588 5585 5584 5583 5584 5586 5588 5592 5595 5599 5603 5608 5612 5617 5622 5626 5630 5636 5639 5642 5646
5680 5683 5686 5688 5690 5691 5691 5688 5686 5682 5677 5672 5665 5658 5652 5645 5636 5624 5611 5600 5596 5595 5594 5592 5590 5589 5589 5589 5590 5593 5596 5599 5602 5606 5610 5612 5617 5621 5626 5631 5634 5637 5641 5644
5673 5677 5681 5683 5684 5686 5686 5685 5683 5679 5674 5670 5664 5658 5653 5645 5636 5626 5614 5604 5599 5598 5598 5596 5594 5594 5594 5594 5594 5596 5599 5601 5605 5608 5611 5616 5619 5623 5626 5630 5634 5637 5641 5642
5667 5671 5675 5678 5680 5682 5682 5681 5679 5675 5671 5668 5662 5657 5653 5645 5637 5629 5618 5608 5602 5602 5601 5600 5599 5599 5598 5597 5598 5600 5603 5605 5607 5609 5613 5617 5618 5623 5627 5630 5634 5637 5639 5641
5660 5666 5670 5673 5675 5677 5678 5677 5676 5673 5668 5665 5662 5658 5652 5644 5637 5629 5621 5612 5605 5605 5604 5604 5603 5602 5601 5601 5602 5603 5605 5607 5610 5612 5615 5617 5620 5624 5627 5630 5633 5635 5638 5640
5654 5660 5664 5667 5670 5673 5674 5673 5671 5670 5667 5664 5661 5656 5651 5644 5637 5631 5622 5614 5609 5608 5607 5606 5606 5606 5606 5606 5606 5606 5607 5609 5611 5614 5616 5618 5622 5625 5627 5630 5632 5634 5636 5637
5649 5654 5658 5662 5666 5669 5670 5669 5668 5666 5664 5662 5659 5654 5650 5644 5637 5630 5624 5616 5612 5610 5608 5608 5608 5607 5607 5607 5607 5608 5609 5611 5612 5614 5616 5619 5622 5624 5626 5628 5631 5632 5634 5635
5643 5648 5653 5658 5661 5664 5665 5665 5664 5663 5661 5659 5656 5653 5649 5643 5637 5632 5626 5620 5614 5610 5608 5608 5609 5609 5609 5608 5608 5609 5609 5610 5611 5613 5614 5618 5621 5623 5625 5626 5628 5629 5631 5632
5637 5643 5647 5652 5656 5659 5660 5661 5660 5659 5659 5657 5654 5651 5647 5643 5637 5632 5627 5621 5615 5610 5608 5607 5607 5607 5607 5609 5608 5607 5607 5609 5609 5610 5611 5612 5616 5618 5621 5622 5625 5626 5627 5628
5631 5638 5643 5647 5651 5653 5655 5656 5656 5656 5655 5654 5652 5649 5647 5642 5637 5632 5627 5623 5616 5612 5608 5606 5605 5605 5604 5604 5603 5604 5604 5604 5606 5606 5607 5609 5610 5612 5613 5617 5623 5621 5622 5623
5626 5633 5638 5642 5645 5648 5650 5651 5653 5653 5652 5651 5649 5648 5644 5641 5636 5632 5628 5624 5617 5611 5606 5603 5602 5602 5601 5600 5601 5600 5601 5601 5601 5602 5604 5606 5606 5608 5610 5613 5613 5616 5617 5618
5620 5627 5633 5636 5640 5643 5646 5647 5649 5649 5649 5649 5646 5644 5642 5638 5635 5630 5626 5623 5617 5611 5605 5601 5598 5597 5597 5597 5598 5597 5599 5597 5597 5599 5600 5600 5601 5603 5604 5606 5608 5610 5611 5612
5615 5622 5627 5631 5635 5639 5641 5643 5645 5646 5646 5645 5643 5641 5639 5636 5632 5629 5625 5621 5616 5610 5604 5599 5595 5593 5590 5591 5593 5591 5592 5591 5592 5593 5594 5595 5595 5597 5599 5600 5602 5604 5605 5606
5609 5616 5621 5626 5631 5634 5637 5639 5641 5642 5643 5642 5641 5638 5636 5633 5630 5626 5622 5619 5615 5609 5603 5597 5592 5588 5585 5585 5586 5588 5588 5588 5588 5589 5590 5589 5591 5591 5592 5593 5595 5596 5598 5600
5603 5610 5617 5621 5625 5629 5633 5635 5637 5638 5640 5639 5637 5635 5633 5631 5628 5624 5621 5618 5614 5608 5602 5596 5590 5585 5581 5579 5579 5581 5582 5582 5583 5583 5585 5584 5585 5585 5587 5588 5588 5590 5591 5592
5599 5606 5611 5615 5620 5624 5627 5629 5632 5634 5634 5635 5633 5631 5629 5628 5625 5622 5619 5616 5612 5607 5601 5595 5588 5582 5577 5574 5574 5575 5575 5577 5576 5578 5578 5579 5579 5579 5580 5581 5582 5583 5584 5586
5594 5601 5606 5611 5615 5619 5622 5625 5627 5628 5630 5630 5629 5628 5626 5624 5622 5618 5615 5613 5609 5605 5600 5592 5586 5581 5576 5570 5569 5569 5570 5570 5571 5571 5570 5571 5573 5574 5574 5574 5575 5576 5577 5578
5589 5596 5601 5606 5611 5614 5617 5619 5621 5623 5624 5624 5624 5623 5622 5619 5617 5615 5612 5609 5605 5601 5597 5591 5585 5580 5574 5570 5566 5564 5564 5563 5563 5562 5563 5565 5565 5566 5568 5568 5569 5569 5570 5570
5584 5590 5596 5601 5606 5609 5611 5613 5615 5617 5620 5619 5618 5618 5617 5615 5613 5610 5608 5605 5602 5599 5595 5589 5583 5578 5573 5568 5564 5561 5559 5558 5557 5556 5557 5557 5558 5558 5559 5560 5562 5562 5563 5563
5578 5585 5591 5595 5600 5602 5606 5607 5610 5610 5611 5612 5613 5613 5611 5611 5608 5605 5604 5601 5597 5594 5592 5586 5580 5575 5571 5566 5562 5559 5556 5554 5553 5552 5552 5550 5550 5551 5550 5550 5552 5554 5555 5556
5572 5579 5585 5590 5593 5596 5599 5601 5603 5604 5606 5607 5607 5606 5605 5604 5602 5600 5598 5595 5592 5590 5588 5583 5577 5573 5569 5564 5560 5556 5554 5552 5549 5547 5545 5544 5543 5543 5544 5543 5542 5545 5546 5548
5570 5575 5579 5582 5586 5589 5591 5594 5597 5598 5599 5601 5600 5599 5598 5597 5596 5594 5592 5590 5588 5585 5582 5578 5573 5569 5565 5560 5556 5552 5550 5548 5545 5542 5540 5539 5537 5535 5536 5536 5536 5537 5538 5538
5562 5566 5570 5576 5578 5580 5584 5587 5590 5591 5593 5595 5594 5593 5591 5590 5589 5587 5586 5585 5583 5580 5577 5573 5569 5564 5560 5555 5551 5547 5545 5542 5540 5538 5535 5533 5531 5530 5528 5529 5529 5529 5529 5529
5554 5560 5563 5567 5570 5573 5578 5580 5582 5583 5585 5587 5586 5585 5584 5583 5582 5580 5580 5579 5577 5574 5572 5568 5564 5560 5555 5551 5547 5542 5539 5537 5535 5533 5530 5528 5526 5524 5523 5522 5521 5521 5521 5521
5548 5553 5555 5561 5564 5566 5570 5573 5574 5576 5578 5578 5577 5576 5577 5576 5575 5574 5573 5571 5570 5568 5565 5562 5559 5555 5550 5546 5541 5536 5533 5530 5528 5527 5525 5523 5521 5519 5517 5516 5515 5514 5514 5514
5541 5546 5550 5554 5556 5559 5562 5564 5566 5568 5569 5569 5568 5568 5568 5568 5567 5568 5566 5564 5563 5561 5558 5555 5552 5548 5544 5540 5536 5531 5527 5524 5522 5520 5519 5517 5515 5514 5513 5511 5509 5509 5508 5508
5534 5538 5543 5546 5548 5551 5554 5556 5559 5560 5560 5559 5559 5560 5560 5560 5559 5560 5557 5557 5556 5553 5551 5548 5545 5541 5538 5534 5530 5525 5521 5518 5516 5514 5512 5510 5508 5507 5506 5505 5504 5503 5502 5501
Wind_Speed
27 25 23 20 20 12 14 18 23 24 24 28 34 39 43 48 54 59 61 24 8 7 14 19 18 10 11 14 16 12 5 5 18 17 30 27 28 24 23 20 20 18 14 16
25 24 24 20 15 10 13 18 22 23 23 27 33 38 40 45 50 56 59 31 5 6 11 17 20 15 17 16 17 15 5 2 12 24 29 27 16 21 19 18 17 17 9 10
28 26 21 15 10 9 15 16 19 22 23 26 31 35 37 42 48 53 56 38 4 6 11 15 16 11 9 12 15 10 10 7 6 20 26 22 14 20 17 17 11 14 8 19
28 25 24 15 10 7 13 15 17 21 25 24 29 32 33 39 43 49 53 43 12 2 7 11 10 13 10 10 12 12 11 7 6 12 18 21 12 17 15 10 18 13 12 12
26 27 22 15 11 11 11 13 16 21 23 24 27 28 32 36 40 47 49 44 23 2 4 7 9 9 12 13 8 10 11 7 10 15 11 12 19 11 9 10 11 12 14 16
24 25 22 23 13 9 11 13 15 19 20 22 25 27 30 34 37 42 47 45 20 5 3 3 1 5 6 10 10 9 7 11 12 13 11 9 15 11 8 8 9 8 11 18
23 27 25 18 15 11 11 12 13 17 20 20 23 25 28 32 35 40 45 44 28 14 4 4 3 4 2 2 5 6 4 5 9 14 13 10 10 10 11 11 11 10 12 12
24 24 25 16 10 9 10 12 13 15 19 19 21 23 27 30 33 36 41 42 37 17 6 6 8 10 9 8 8 4 3 6 11 16 19 17 14 11 8 9 7 9 12 15
29 26 23 21 16 10 12 12 13 14 17 16 18 21 25 28 30 33 38 42 40 26 12 10 10 9 10 9 12 14 12 11 10 13 17 22 18 20 18 14 12 12 12 13
37 23 21 20 15 11 12 10 12 13 14 14 17 19 22 25 27 28 33 39 40 35 22 12 12 11 11 11 12 12 13 14 14 14 17 17 20 21 21 23 20 17 16 16
36 27 24 17 11 12 11 8 9 11 12 12 14 17 20 22 25 27 29 35 38 39 31 18 12 12 13 13 13 12 13 15 16 17 18 19 18 18 19 19 17 18 19 18
33 29 20 21 13 13 10 8 7 10 11 11 12 16 17 20 21 24 27 30 35 38 36 29 20 15 16 16 15 14 12 15 16 17 18 19 18 19 22 21 21 20 20 20
34 26 26 23 18 16 11 7 6 10 9 10 13 14 16 17 20 21 23 27 33 35 37 36 31 20 18 18 16 18 16 14 15 17 18 18 20 21 22 24 24 23 21 20
33 29 22 22 19 15 11 6 7 7 6 10 13 13 13 15 17 20 22 25 31 33 34 37 37 27 19 17 18 18 18 17 16 17 17 20 19 21 21 23 23 23 23 23
34 34 28 22 17 16 12 10 10 8 7 12 16 14 12 14 16 18 20 23 27 30 32 35 37 35 20 16 20 16 18 21 21 18 19 19 19 21 22 23 24 23 23 24
31 29 21 20 22 19 17 17 15 12 12 16 15 14 13 13 14 17 18 21 25 28 29 33 37 39 30 15 15 19 23 21 24 24 22 24 21 20 22 23 24 23 24 24
37 31 26 25 22 20 19 16 14 14 14 13 15 15 14 13 14 15 16 19 23 26 29 32 36 38 34 24 17 17 20 20 22 24 27 25 24 22 21 21 22 24 25 24
38 35 33 26 19 19 13 10 8 7 7 10 15 16 15 16 14 13 15 18 22 25 27 31 33 36 36 30 23 19 21 22 22 22 24 29 28 26 24 24 23 22 22 25
33 37 35 27 24 24 17 16 14 11 11 11 13 18 17 17 14 14 14 17 20 24 26 29 31 33 34 32 26 23 19 21 22 21 24 24 28 30 30 29 27 25 24 23
34 36 32 27 26 22 20 21 18 13 10 10 13 19 20 19 17 14 15 17 19 22 25 26 29 31 32 33 28 22 21 18 18 22 23 24 27 26 27 32 36 30 28 27
38 36 34 31 26 26 25 23 19 10 8 10 16 21 23 22 18 16 15 17 19 21 24 25 26 29 32 34 30 24 22 21 19 18 21 25 25 25 27 25 27 32 30 30
38 38 35 31 26 25 23 23 18 10 7 13 18 23 24 24 20 18 17 18 20 22 25 25 25 27 31 34 31 27 23 23 22 22 22 22 23 26 25 25 24 27 33 36
43 39 39 32 30 32 26 22 18 15 12 16 20 24 26 24 23 21 19 20 21 22 24 25 25 26 29 33 35 29 25 24 25 24 22 22 22 22 23 25 24 24 26 28
40 36 40 39 34 32 30 25 21 18 17 19 22 26 25 25 23 23 22 22 23 25 25 25 25 25 29 32 35 33 28 26 25 24 22 22 24 22 21 20 20 23 22 24
36 32 36 36 37 34 31 26 24 20 17 23 25 27 26 25 25 25 24 26 26 26 27 27 26 27 27 30 35 36 32 28 25 26 26 23 22 23 20 19 20 22 21 19
29 30 32 27 30 31 26 25 24 19 22 22 25 28 26 26 27 25 26 29 28 28 29 28 29 28 29 30 35 37 36 30 25 25 26 26 25 26 26 22 19 19 18 19
34 34 34 35 31 27 26 24 23 22 21 22 26 28 27 27 27 26 29 31 30 31 32 31 31 29 31 32 35 38 37 33 29 28 28 28 29 29 29 28 27 21 18 18
Wind_Direction
241 233 237 243 258 272 304 324 333 342 349 357 3 11 9 7 9 10 4 12 43 35 25 13 36 95 85 109 102 94 121 151 185 190 188 191 192 191 192 196 201 205 220 233
236 233 232 240 256 271 303 324 334 343 352 359 5 10 9 7 9 11 8 11 47 43 26 23 44 92 93 106 104 85 81 124 202 188 188 199 200 185 182 192 191 174 168 195
234 233 224 229 236 269 306 322 337 350 353 3 8 11 7 7 9 13 10 8 44 44 30 40 50 87 91 106 111 114 118 109 157 198 196 203 225 203 194 200 192 194 194 196
229 224 226 236 240 271 312 322 341 350 355 5 11 11 4 10 10 15 13 12 354 5 33 42 67 55 77 104 115 125 123 139 173 201 208 215 214 192 214 203 199 198 184 193
222 212 231 221 246 276 294 316 339 347 357 3 9 8 5 11 9 15 14 13 7 335 26 53 73 63 85 94 102 151 157 173 205 176 185 189 187 173 181 196 197 195 207 205
213 224 229 233 250 265 294 312 341 352 356 1 6 7 4 9 10 14 14 16 13 334 323 3 349 47 91 104 115 132 144 164 178 205 205 210 181 204 247 223 210 214 213 217
214 231 242 227 237 261 289 318 336 349 352 358 6 5 4 9 11 13 13 15 17 357 331 256 311 332 348 85 64 81 154 201 209 206 214 219 216 224 237 230 232 245 244 243
216 229 211 217 229 247 289 316 335 344 349 358 3 3 3 8 12 12 12 13 11 7 295 285 271 275 286 291 306 315 304 249 236 230 236 237 226 224 223 227 235 244 241 241
210 222 222 219 240 256 272 297 320 341 346 357 360 1 2 7 9 11 9 11 10 8 340 288 278 273 273 278 282 287 279 272 261 254 246 246 241 238 243 244 260 265 251 245
211 204 210 218 239 250 264 281 309 337 340 356 357 359 1 4 6 9 8 9 7 3 360 317 283 278 275 276 270 271 272 268 261 257 248 244 238 241 248 252 256 255 251 246
204 214 213 214 229 238 249 280 306 330 331 349 354 356 360 2 3 6 5 7 5 4 3 343 307 286 276 275 268 260 260 261 258 254 243 242 236 239 246 249 248 242 246 247
201 206 206 215 232 240 260 275 302 318 319 338 351 356 357 1 358 1 2 1 5 1 0 353 337 293 280 280 272 270 261 255 253 253 250 248 244 243 243 244 248 248 248 249
201 205 210 219 242 241 252 267 295 305 311 333 348 348 355 353 351 355 358 356 3 1 358 354 348 329 291 275 275 265 260 256 255 252 252 251 249 245 245 246 248 251 253 254
207 205 214 223 238 234 249 259 289 282 305 333 339 338 340 344 344 348 354 355 358 0 359 354 348 342 318 274 261 263 262 266 259 257 252 251 252 251 249 250 250 250 252 254
201 202 217 217 226 235 243 257 280 260 288 334 334 329 329 333 338 344 348 351 354 357 360 356 350 345 332 300 260 265 272 265 261 258 262 261 252 252 252 252 253 253 253 253
202 208 227 234 243 239 247 262 266 253 274 313 316 317 317 324 332 335 342 348 351 354 0 360 354 349 346 317 295 265 266 275 266 257 255 258 257 253 254 254 253 253 252 251
216 226 226 236 248 245 245 245 245 253 284 304 305 307 309 314 319 323 337 344 347 352 357 2 359 352 347 338 304 283 282 271 277 270 255 255 261 264 261 259 257 254 253 253
219 225 227 239 238 214 213 220 241 246 258 306 306 300 303 306 306 317 332 338 344 351 353 1 359 355 348 342 336 312 281 282 277 278 267 258 253 253 255 257 258 260 259 256
218 219 225 229 232 221 238 253 253 263 281 291 295 293 295 298 297 310 323 334 342 349 350 356 357 359 346 342 336 335 324 286 280 281 279 277 264 255 253 254 254 254 257 259
211 218 219 220 216 234 252 257 263 275 279 284 285 288 285 289 291 298 313 327 337 346 347 351 354 354 345 341 335 333 333 325 302 283 282 279 278 275 267 261 252 249 250 254
212 209 216 226 228 238 253 258 256 275 288 295 294 287 285 287 287 290 306 320 329 337 342 345 350 350 344 340 333 324 320 318 315 311 294 282 279 278 273 273 252 243 249 253
215 218 224 231 234 233 246 248 255 280 289 296 287 282 279 280 282 284 300 309 322 329 333 339 344 343 343 338 329 323 313 310 311 311 307 301 289 274 273 269 263 255 253 254
217 223 233 234 237 244 251 254 255 275 279 301 288 275 273 277 277 279 290 303 314 321 327 334 335 338 338 335 329 320 307 308 307 305 308 306 299 293 279 268 261 260 257 258
221 231 230 231 239 251 252 258 277 277 279 294 285 271 270 274 275 276 284 295 306 315 320 327 331 330 331 333 329 320 310 296 299 305 304 303 310 292 285 271 264 264 267 266
230 231 236 245 253 253 252 267 281 284 278 290 280 267 270 272 274 272 282 289 300 309 314 320 322 326 322 325 325 322 316 309 299 294 295 299 309 305 282 278 272 260 258 258
236 241 248 255 261 252 259 275 287 279 284 283 265 264 271 274 272 274 277 282 291 302 308 313 318 316 319 319 321 320 317 312 305 298 295 295 294 297 298 301 274 263 260 260
245 249 249 256 262 259 267 283 286 276 277 261 259 266 271 278 271 273 274 279 289 295 304 307 312 308 314 316 317 317 315 311 302 298 299 296 293 289 288 287 291 287 273 269